Home   Weather   Munising   Past weeks
Flag for USA

Past Weather in Munising, Michigan, USA — Yesterday and Last 2 Weeks

Now
48 °F

Cool.


Feels Like: 44 °F
Forecast: 52 / 34 °F
Wind: 9 mph from South

Location: Munising - Munising Lakeshore

Current Time: Oct 18, 2019 at 12:49:13 pm

Latest Report: Oct 18, 2019 at 11:56 am


Visibility: N/A

Pressure: 30.04 "Hg

Humidity: 68%

Dew Point: 38 °F

Location of MunisingLocation

Past Weather in Munising — Graph

°F

Munising Temperature Yesterday

Maximum temperature yesterday: 47 °F (at 2:56 pm)
Minimum temperature yesterday: 43 °F (at 8:56 am)
Average temperature yesterday: 45 °F

High & Low Weather Summary for the Past Weeks

 TemperatureHumidityPressure
High68 °F (Oct 9, 12:56 pm)93% (Oct 3, 10:56 am)30.50 "Hg (Oct 3, 10:56 am)
Low30 °F (Oct 18, 7:56 am)39% (Oct 8, 1:56 pm)29.60 "Hg (Oct 13, 4:56 am)
Average47 °F78%29.97 "Hg
* Reported Oct 3 10:56 am — Oct 18 10:56 am, Munising. Weather by CustomWeather, © 2019

Note: Actual official high and low records may vary slightly from our data, if they occured in-between our weather recording intervals... More about our weather records

Advertising

Munising Weather History for the Previous 24 Hours

Scroll right to see more
 ConditionsComfort  
Time TempWeatherWind HumidityBarometerVisibility
10:56 am
Fri, Oct 18
45 °FCool.6 mph71%30.06 "HgN/A
9:56 am40 °FChilly.5 mph83%30.06 "HgN/A
8:56 am33 °FChilly.6 mph92%30.06 "HgN/A
7:56 am30 °FChilly.9 mph92%30.08 "HgN/A
6:56 am31 °FChilly.8 mph92%30.06 "HgN/A
5:56 am31 °FChilly.8 mph92%30.06 "HgN/A
4:56 am31 °FChilly.8 mph92%30.06 "HgN/A
3:56 am31 °FChilly.8 mph92%30.05 "HgN/A
2:56 am32 °FChilly.8 mph92%30.04 "HgN/A
1:56 am34 °FChilly.7 mph92%30.04 "HgN/A
12:56 am36 °FChilly.6 mph92%30.05 "HgN/A
11:56 pm
Thu, Oct 17
43 °FQuite cool.3 mph74%30.03 "HgN/A
10:56 pm44 °FQuite cool.8 mph71%30.02 "HgN/A
9:56 pm44 °FQuite cool.8 mph73%30.03 "HgN/A
8:56 pm44 °FQuite cool.8 mph76%30.04 "HgN/A
7:56 pm44 °FQuite cool.10 mph73%30.03 "HgN/A
6:56 pm45 °FCool.12 mph74%30.03 "HgN/A
5:56 pm45 °FCool.12 mph71%30.02 "HgN/A
4:56 pm45 °FCool.8 mph74%30.01 "HgN/A
3:56 pm46 °FCool.12 mph71%30.00 "HgN/A
2:56 pm47 °FCool.12 mph66%30.00 "HgN/A
1:56 pm45 °FCool.10 mph80%30.01 "HgN/A
12:56 pm45 °FCool.15 mph74%30.02 "HgN/A
Weather by CustomWeather, © 2019

See weather overview